Simultaneous Nadir Overpasses (SNOs) Predictions

Prediction of SNOs between GOES-14 and NOAA-20 Satellite Orbit:

Table of predicted SNOs for the next 14.0 days since TLE Epoch: 2/17/2024
Index Date Time (GOES-14) GOES-14 Lat,Lon NOAA-20 Lat,Lon Distance(km) Time Diff (sec)
1 02/17/2024 08:58:25 0.03,-108.42 1.01,-112.78 497.03 80
2 02/18/2024 08:37:01 0.03,-108.41 -0.00,-108.25 18.51 80
3 02/20/2024 20:42:52 -0.04,-108.41 -0.18,-109.02 69.53 80
4 02/21/2024 20:21:28 -0.03,-108.41 0.84,-104.49 446.37 80
5 02/23/2024 08:45:55 0.04,-108.39 0.35,-109.75 155.70 80
6 02/24/2024 08:24:31 0.04,-108.38 -0.68,-105.22 360.15 80
7 02/25/2024 20:49:07 -0.05,-108.39 -0.51,-110.53 243.23 80
8 02/26/2024 20:27:43 -0.04,-108.39 0.52,-106.00 272.98 80
9 02/28/2024 08:52:09 0.05,-108.37 0.72,-111.25 328.47 80
10 02/29/2024 08:30:44 0.04,-108.37 -0.32,-106.72 187.40 80
11 03/01/2024 20:55:21 -0.05,-108.37 -0.86,-112.03 416.57 80
